Zurück zum Katalog

NOAA 16 DEB

AktivSSO
NORAD 41353·DEBRIS·🇺🇸 United States

Gestartet Sep 21, 2000 von Vandenberg Space Force Base

Loading…

Nächste Überflüge (nächste 24 Stunden)

TLE

AktuellSource: Space-Track

Epoche: Sep 14, 2026, 09:48 UTC

1 41353U 00055HW  26257.40864473  .00002077  00000-0  88195-3 0  9994
2 41353  98.6848 323.5288 0025087 167.0429 193.1401 14.26222633548695

Verfolge NOAA 16 DEB in Echtzeit mit AllMySat

Download on the App Store